{"data":{"norad_id":55577,"epoch":"2026-09-20T05:41:57.251616Z","epoch_age_seconds":123042,"freshness":"FRESH","line1":"1 55577U 23020J   26263.23746819 -.00000248  00000+0  52759-6 0  9993","line2":"2 55577  43.0050 346.6543 0001853 273.0782  86.9858 15.27573700198661","mean_motion":15.275737,"eccentricity":0.0001853,"inclination_deg":43.005,"raan_deg":346.6543,"arg_perigee_deg":273.0782,"mean_anomaly_deg":86.9858,"bstar":5.2759e-7,"rev_number":19866,"period_min":94.267137487376,"perigee_km":481.79657929171,"apogee_km":484.33934185009,"semimajor_km":6861.2049605709,"source":"CELESTRAK","updated_at":"2026-09-21T09:00:33.264490Z"}}